Location: Brantford
(43.1330°N, 80.2670°W)
Time: 09:18:06
(UTC-04:00)

N. Korean satellite - Visible Passes

Search period start: 22 October 2020 00:00
Search period end: 01 November 2020 00:00
Orbit: 453 x 505 km, 97.2° (Epoch: 22 October)

Date Brightness Start Highest point End Pass type
(mag) Time Alt. Az. Time Alt. Az. Time Alt. Az.
22 Oct 6.9 06:47:29 10° NNE 06:50:53 64° E 06:54:15 10° S visible
22 Oct 9.9 18:57:27 10° SW 19:00:05 19° W 19:02:42 10° NW visible
23 Oct 8.7 06:21:42 10° NE 06:24:42 28° E 06:27:40 10° SSE visible
24 Oct 9.9 05:56:39 10° ENE 05:58:25 13° E 06:00:11 10° ESE visible
25 Oct 6.3 07:02:27 10° N 07:05:52 77° WNW 07:09:15 10° SSW visible
25 Oct 10.2 19:13:38 10° WSW 19:15:12 12° W 19:16:45 10° WNW visible
26 Oct 7.7 06:36:26 10° NNE 06:39:43 44° E 06:43:00 10° S visible
26 Oct 9.4 18:45:54 10° SSW 18:48:53 25° W 18:51:53 10° NW visible
27 Oct 9.3 06:10:51 10° NE 06:13:29 20° E 06:16:07 10° SE visible
28 Oct 6.7 07:17:28 10° N 07:20:47 46° WNW 07:24:03 10° SSW visible
29 Oct 6.7 06:51:15 10° NNE 06:54:41 74° ESE 06:58:05 10° S visible
29 Oct 9.9 19:01:37 10° SW 19:03:56 16° W 19:06:15 10° NW visible
30 Oct 8.5 06:25:23 10° NNE 06:28:29 31° E 06:31:34 10° SSE visible
31 Oct 9.8 06:00:07 10° NE 06:02:12 15° E 06:04:17 10° SE visible
